Location: Grand Rapids
(42.9630°N, 85.6680°W)
Time: 03:32:08
(UTC-04:00)

S-56A Canister/Altair - Pass Details

Date: 02 June 2024
Orbit: 637 x 2489 km, 38.9° (Epoch: 22 June)

Event Time Altitude Azimuth Distance (km) Brightness Sun altitude
Rises 09:00:53 0° 280° (W) 6,028 11.6 29.4°
Reaches altitude 10° 09:05:11 10° 277° (W) 4,867 11.2 30.1°
Maximum altitude 09:17:57 57° 204° (SSW) 2,061 10.0 32.5°
Drops below altitude 10° 09:26:45 10° 129° (SE) 3,425 11.7 34.1°
Sets 09:29:16 0° 124° (SE) 4,177 12.0 34.6°
